Location: Cisewo
(53.3833°N, 14.9000°E)
Time: 19:12:55
(UTC+00:00)

BEESAT 3 - Pass Details

Date: 01 October 2021
Orbit: 481 x 510 km, 64.9° (Epoch: 21 October)

Event Time Altitude Azimuth Distance (km) Brightness Sun altitude
Rises 20:21:13 0° 314° (NW) 2,621 ? -31.6°
Reaches altitude 10° 20:23:24 10° 311° (NW) 1,735 ? -31.8°
Enters shadow 20:24:33 19° 307° (NW) 1,278 ? -31.9°
